{"data":{"norad_id":61261,"intl_designator":"2024-175U","name":"STARLINK-32447","alt_names":[],"object_type":"PAYLOAD","status":"ACTIVE","operator":null,"country":"US","launch_date":"2024-09-25","launch_site_code":"AFWTR","launch_vehicle":null,"mission":null,"orbit_class":"UNKNOWN","rcs_meters":null,"size_class":null,"mass_kg":null,"dimensions":null,"purposes":["comms"],"wikipedia_slug":null,"has_3d_model":false,"image_url":null,"decayed_at":null,"tle_current":{"epoch":"2026-09-21T10:58:05.651904Z","epoch_age_seconds":109493,"freshness":"FRESH","line1":"1 61261U 24175U   26264.45700986 -.00001532  00000+0 -34242-4 0  9995","line2":"2 61261  53.1623   1.3732 0001468 101.1377 258.9791 15.34371293111476","mean_motion":15.34371293,"eccentricity":0.0001468,"inclination_deg":53.1623,"raan_deg":1.3732,"arg_perigee_deg":101.1377,"mean_anomaly_deg":258.9791,"bstar":-3.4242e-5,"rev_number":11147,"period_min":93.84951390641,"perigee_km":461.7843169182,"apogee_km":463.79281266402,"semimajor_km":6840.9255647911,"source":"CELESTRAK","updated_at":"2026-09-22T09:00:49.352057Z"}}}